User: anonymous   Login
Location: Unspecified
(0.0000°N, 0.0000°E)
Time: 02:59:10
(UTC+00:00)
Language:

Gonets-D1 - Orbit

View from above orbital plane
View from above orbital plane
View from above satellite
View from above satellite

Ground track
Ground track

The orbit data is extracted from the following two-line orbital elements,

1 24726U 97006B   17232.26898846 +.00000006 +00000-0 -26625-4 0  9991
2 24726 082.6026 150.5037 0004800 177.7757 182.3356 12.61335712944243
Epoch (UTC): 20 August 2017 06:27:20
Eccentricity: 0.0004800
inclination: 82.6026°
perigee height: 1413 km
apogee height: 1421 km
right ascension of ascending node: 150.5037°
argument of perigee: 177.7757°
revolutions per day: 12.61335712
mean anomaly at epoch: 182.3356°
orbit number at epoch: 94424

The dashed part of the orbit path shows where the satellite is in the earth's shadow,  

DLR